Location: Berlin
(38.3226°N, 75.2177°W)
Time: 22:42:16
(UTC+00:00)

FENGYUN 3A - Pass Details

Date: 26 October 2020
Orbit: 824 x 835 km, 98.4° (Epoch: 25 November)

Event Time Altitude Azimuth Distance (km) Brightness Sun altitude
Rises 10:05:03 0° 7° (N) 3,392 6.9 -15.6°
Reaches altitude 10° 10:07:29 10° 2° (N) 2,454 6.1 -15.1°
Maximum altitude 10:12:42 50° 288° (WNW) 1,057 3.8 -14.1°
Drops below altitude 10° 10:17:54 10° 215° (SW) 2,439 5.8 -13.0°
Sets 10:20:19 0° 210° (SSW) 3,368 6.6 -12.6°
